Location: Corcelles
(46.1547°N, 4.7234°E)
Time: 21:03:11
(UTC+00:00)

Meteor 1-18 Rocket - Pass Details

Date: 14 July 2020
Orbit: 836 x 909 km, 81.2° (Epoch: 14 August)

Event Time Altitude Azimuth Distance (km) Brightness Sun altitude
Rises 01:02:04 0° 347° (NNW) 3,518 8.4 -20.1°
Reaches altitude 10° 01:04:34 10° 345° (NNW) 2,564 7.5 -20.0°
Maximum altitude 01:10:22 73° 263° (W) 920 4.2 -19.6°
Enters shadow 01:12:52 35° 187° (S) 1,379 4.8 -19.5°
